Waarnemingen

Advertentie
Mijn weer
Catania/Fontanarossa, Italië (16460): temperatuur & dauwpunt: 16.07.2018 18:00:00 - 22.07.2018 18:00:00 (CEST)Catania/Fontanarossa, Italië (16460): windsnelheid: 16.07.2018 18:00:00 - 22.07.2018 18:00:00 (CEST)Catania/Fontanarossa, Italië (16460): windrichting: 16.07.2018 18:00:00 - 22.07.2018 18:00:00 (CEST)Catania/Fontanarossa, Italië (16460): luchtdruk: 16.07.2018 18:00:00 - 22.07.2018 18:00:00 (CEST)Catania/Fontanarossa, Italië (16460): zicht: 16.07.2018 18:00:00 - 22.07.2018 18:00:00 (CEST)Catania/Fontanarossa, Italië (16460): neerslag: 16.07.2018 18:00:00 - 22.07.2018 18:00:00 (CEST)
Datum & Tijd tt [°C] td [°C] ff [km/u] ff [kn] dd ppp [hPa] vv [km] rr [mm]
22.07.2018 18:00:00 30,0 24,0 29 16 ONO - 10 -
22.07.2018 17:00:00 31,0 23,5 29 16 ONO 1009,9 10 0,0
22.07.2018 16:00:00 32,0 21,0 31 17 ONO - 10 -
22.07.2018 15:00:00 33,0 15,0 34 18 ONO - 10 -
22.07.2018 14:00:00 41,7 5,2 18 10 WZW 1010,3 10 -
22.07.2018 13:00:00 39,0 5,0 22 12 W - 10 -
22.07.2018 12:00:00 38,0 5,0 24 13 W - 10 -
22.07.2018 11:00:00 36,5 4,9 22 12 W 1011,9 10 0,0
22.07.2018 10:00:00 34,0 8,0 22 12 WZW - 10 -
22.07.2018 09:00:00 31,0 7,0 21 11 W - 10 -
22.07.2018 08:00:00 29,1 8,0 15 8 W 1012,8 10 -
22.07.2018 07:00:00 27,0 10,0 21 11 WNW - 10 -
22.07.2018 06:00:00 27,0 9,0 22 12 W - 10 -
22.07.2018 05:00:00 27,4 10,3 22 12 WZW 1011,6 10 0,0
22.07.2018 04:00:00 27,0 13,0 21 11 W - 10 -
22.07.2018 03:00:00 26,0 14,0 15 8 WZW - 10 -
22.07.2018 02:00:00 23,9 15,5 11 6 WZW 1012,8 10 -
22.07.2018 01:00:00 25,0 17,0 11 6 WZW - 10 -
22.07.2018 00:00:00 25,0 21,0 5 3 WZW - 10 -
21.07.2018 23:00:00 25,1 21,1 5 3 WZW 1013,7 10 0,0
21.07.2018 22:00:00 26,0 23,0 2 1 - - 10 -
21.07.2018 21:00:00 27,0 23,0 9 5 O - 10 -
21.07.2018 20:00:00 27,7 22,6 18 10 ONO 1013,0 10 -
21.07.2018 19:00:00 29,0 21,0 22 12 NO - 10 -
21.07.2018 18:00:00 29,0 21,0 21 11 ONO - 10 -
21.07.2018 17:00:00 29,8 21,5 21 11 O 1013,4 10 0,0
21.07.2018 16:00:00 30,0 19,0 18 10 O - 10 -
21.07.2018 15:00:00 32,0 13,0 18 10 OZO - 10 -
21.07.2018 14:00:00 33,4 10,9 15 8 O 1014,3 10 -
21.07.2018 13:00:00 33,0 10,0 13 7 O - 10 -
21.07.2018 12:00:00 32,0 13,0 15 8 O - 10 -
21.07.2018 11:00:00 31,2 13,0 9 5 O 1014,8 10 0,0
21.07.2018 10:00:00 31,0 12,0 4 2 - - 10 -
21.07.2018 09:00:00 27,0 18,0 5 3 WZW - 10 -
21.07.2018 08:00:00 23,2 14,2 8 4 W 1014,1 10 -
21.07.2018 07:00:00 20,0 14,0 8 4 ZW - 10 -
21.07.2018 06:00:00 18,0 14,0 11 6 W - 10 -
21.07.2018 05:00:00 19,7 15,0 8 4 W 1013,4 10 0,0
21.07.2018 04:00:00 21,0 17,0 4 2 W - 10 -
21.07.2018 03:00:00 22,0 17,0 8 4 ZZW - 10 -
21.07.2018 02:00:00 22,8 17,8 8 4 Z 1014,2 10 -
21.07.2018 01:00:00 24,0 17,0 5 3 W - 10 -
21.07.2018 00:00:00 26,0 17,0 4 2 - - 10 -
20.07.2018 23:00:00 25,9 18,0 0 0 N 1014,6 10 0,0
20.07.2018 22:00:00 26,0 20,0 2 1 Z - 10 -
20.07.2018 21:00:00 27,0 20,0 4 2 - - 10 -
20.07.2018 20:00:00 27,7 19,9 13 7 OZO 1013,5 10 -
20.07.2018 19:00:00 29,0 20,0 18 10 O - 10 -
20.07.2018 18:00:00 29,0 20,0 16 9 OZO - 10 -
20.07.2018 17:00:00 31,1 18,4 26 14 ONO 1013,2 10 0,0
20.07.2018 16:00:00 33,0 17,0 29 16 ONO - 10 -
20.07.2018 15:00:00 31,0 18,0 24 13 ONO - 10 -
20.07.2018 14:00:00 30,3 20,7 22 12 O 1013,7 10 -
20.07.2018 13:00:00 31,0 18,0 18 10 O - 10 -
20.07.2018 12:00:00 31,0 15,0 16 9 O - 10 -
20.07.2018 11:00:00 30,4 15,7 11 6 O 1014,2 10 0,0
20.07.2018 10:00:00 30,0 14,0 15 8 O - 10 -
20.07.2018 09:00:00 29,0 10,0 11 6 W - 10 -
20.07.2018 08:00:00 25,9 13,1 5 3 ZW 1013,3 10 -
20.07.2018 07:00:00 21,0 15,0 11 6 W - 10 -
20.07.2018 06:00:00 20,0 16,0 4 2 W - 10 -
20.07.2018 05:00:00 19,5 16,8 11 6 W 1012,7 10 0,0
20.07.2018 04:00:00 21,0 17,0 5 3 WZW - 10 -
20.07.2018 03:00:00 24,0 20,0 5 3 WZW - 10 -
20.07.2018 02:00:00 23,2 18,9 11 6 W 1013,3 10 -
20.07.2018 01:00:00 23,0 17,0 8 4 W - 10 -
20.07.2018 00:00:00 24,0 20,0 11 6 W - 10 -
19.07.2018 23:00:00 26,1 20,8 5 3 O 1013,4 10 0,0
19.07.2018 22:00:00 27,0 20,0 15 8 O - 10 -
19.07.2018 21:00:00 28,0 20,0 15 8 ONO - 10 -
19.07.2018 20:00:00 29,3 16,1 18 10 ONO 1012,2 10 -
19.07.2018 19:00:00 30,0 17,0 18 10 ONO - 10 -
19.07.2018 18:00:00 30,0 17,0 18 10 ONO - 10 -
19.07.2018 17:00:00 30,9 19,7 16 9 O 1012,9 10 0,0
19.07.2018 16:00:00 31,0 16,0 18 10 O - 10 -
19.07.2018 15:00:00 32,0 13,0 16 9 O - 10 -
19.07.2018 14:00:00 31,3 12,4 13 7 OZO 1013,8 10 -
19.07.2018 13:00:00 30,0 15,0 15 8 OZO - 10 -
19.07.2018 12:00:00 30,0 14,0 13 7 O - 10 -
19.07.2018 11:00:00 30,3 12,6 11 6 O 1014,4 10 0,0
19.07.2018 10:00:00 29,0 11,0 9 5 WZW - 10 -
19.07.2018 09:00:00 27,0 12,0 5 3 ZZW - 10 -
19.07.2018 08:00:00 23,7 12,8 11 6 WZW 1014,7 10 -
19.07.2018 07:00:00 20,0 14,0 8 4 WZW - 10 -
19.07.2018 06:00:00 19,0 14,0 9 5 WZW - 10 -
19.07.2018 05:00:00 19,8 14,8 13 7 WZW 1013,8 10 0,0
19.07.2018 04:00:00 22,0 16,0 9 5 WZW - 10 -
19.07.2018 03:00:00 22,0 19,0 9 5 W - 10 -
19.07.2018 02:00:00 22,5 19,8 15 8 W 1014,7 10 -
19.07.2018 01:00:00 24,0 20,0 4 2 - - 10 -
19.07.2018 00:00:00 26,0 21,0 11 6 ONO - 10 -
18.07.2018 23:00:00 26,3 21,1 15 8 ONO 1014,7 10 0,0
18.07.2018 22:00:00 26,0 21,0 11 6 ZO - 10 -
18.07.2018 21:00:00 27,0 21,0 11 6 OZO - 10 -
18.07.2018 20:00:00 27,6 19,8 13 7 OZO 1013,6 10 -
18.07.2018 19:00:00 29,0 20,0 16 9 OZO - 10 -
18.07.2018 18:00:00 29,0 21,0 26 14 OZO - 10 -
18.07.2018 17:00:00 29,6 20,7 21 11 O 1013,4 10 0,0
18.07.2018 16:00:00 31,0 20,0 24 13 O - 10 -
18.07.2018 15:00:00 30,0 21,0 26 14 ONO - 10 -
18.07.2018 14:00:00 29,6 20,6 26 14 ONO 1013,5 10 -
18.07.2018 13:00:00 29,0 19,0 24 13 O - 10 -
18.07.2018 12:00:00 29,0 17,0 21 11 O - 10 -
18.07.2018 11:00:00 29,7 15,3 15 8 O 1014,2 10 0,0
18.07.2018 10:00:00 29,0 15,0 8 4 - - 10 -
18.07.2018 09:00:00 28,0 16,0 2 1 - - 10 -
18.07.2018 08:00:00 24,9 16,0 5 3 WZW 1013,7 10 -
18.07.2018 07:00:00 21,0 16,0 5 3 W - 10 -
18.07.2018 06:00:00 - - - - - - - -
18.07.2018 05:00:00 - - - - - - - -
18.07.2018 04:00:00 21,0 15,0 8 4 W - 10 -
18.07.2018 03:00:00 - - - - - - - -
18.07.2018 02:00:00 22,0 15,0 9 5 WZW - 10 -
18.07.2018 01:00:00 25,0 15,0 9 5 ZZW - 10 -
18.07.2018 00:00:00 25,0 15,0 11 6 ZZW - 10 -
17.07.2018 23:00:00 26,9 17,0 11 6 Z 1013,0 10 0,0
17.07.2018 22:00:00 27,0 17,0 18 10 OZO - 10 -
17.07.2018 21:00:00 28,0 14,0 26 14 W - 10 -
17.07.2018 20:00:00 29,5 14,5 31 17 W 1010,7 10 -
17.07.2018 19:00:00 32,0 13,0 34 18 WNW - 10 -
17.07.2018 18:00:00 34,0 12,0 35 19 NW - 10 -
17.07.2018 17:00:00 34,6 12,1 34 18 WNW 1010,0 10 0,0
17.07.2018 16:00:00 32,0 19,0 8 4 - - 10 -
17.07.2018 15:00:00 32,0 20,0 15 8 O - 10 -
17.07.2018 14:00:00 30,9 19,5 22 12 O 1010,0 10 -
17.07.2018 13:00:00 31,0 20,0 24 13 O - 10 -
17.07.2018 12:00:00 31,0 19,0 34 18 ONO - 10 -
17.07.2018 11:00:00 35,6 5,1 28 15 W 1009,9 10 0,0
17.07.2018 10:00:00 32,0 13,0 31 17 WZW - 10 -
17.07.2018 09:00:00 30,0 16,0 22 12 W - 10 -
17.07.2018 08:00:00 27,4 16,6 15 8 W 1011,2 10 -
17.07.2018 07:00:00 25,0 16,0 21 11 W - 10 -
17.07.2018 06:00:00 25,0 17,0 22 12 WZW - 10 -
17.07.2018 05:00:00 25,0 17,0 22 12 W - 10 -
17.07.2018 04:00:00 26,0 17,0 26 14 W - 10 -
17.07.2018 03:00:00 26,0 18,0 21 11 W - 10 -
17.07.2018 02:00:00 25,6 18,3 15 8 W 1012,2 10 -
17.07.2018 01:00:00 25,0 18,0 13 7 W - 10 -
17.07.2018 00:00:00 26,0 20,0 2 1 - - 10 -
16.07.2018 23:00:00 27,3 20,2 15 8 ONO 1013,8 10 0,0
16.07.2018 22:00:00 28,0 21,0 18 10 ONO - 10 -
16.07.2018 21:00:00 28,0 20,0 2 1 Z - 10 -
16.07.2018 20:00:00 28,5 19,7 9 5 O 1013,7 10 -
16.07.2018 19:00:00 30,0 18,0 11 6 O - 10 -
16.07.2018 18:00:00 - - - - - - - -

tt = temperatuur
td = dauwpunt
ff = windsnelheid
dd = windrichting
ppp = luchtdruk
vv = zicht
rr = neerslag

Weerstations in de omgeving